Overview Statistics Trail Chart Weather Telemetry Raw packets
 

This is the latest recevied weather packets stored in our database for station/object KF0WJA. If no packets are shown the sender has not sent any weather packets the latest 10 day(s).

<< 15 16 17 18 19 20 21 >>
Time Temp. Humidity Pressure Rain* Wind** Luminosity Snow
1788554543 36.67° C 43% 1014.6 hPa 0 mm - 609 W/m² -
1788554239 36.67° C 45% 1014.6 hPa 0 mm - 631 W/m² -
1788553936 36.67° C 44% 1014.7 hPa 0 mm - 642 W/m² -
1788553631 36.67° C 45% 1014.6 hPa 0 mm - 652 W/m² -
1788553327 36.11° C 45% 1014.7 hPa 0 mm - 640 W/m² -
1788553022 37.22° C 45% 1014.7 hPa 0 mm - 656 W/m² -
1788552722 36.67° C 46% 1014.6 hPa 0 mm - 654 W/m² -
1788552416 36.67° C 44% 1014.7 hPa 0 mm - 631 W/m² -
1788552111 36.67° C 44% 1014.8 hPa 0 mm - 651 W/m² -
1788551810 36.11° C 46% 1014.9 hPa 0 mm - 638 W/m² -
1788551510 36.11° C 44% 1014.9 hPa 0 mm - 652 W/m² -
1788551204 36.67° C 45% 1014.9 hPa 0 mm - 307 W/m² -
1788550904 36.67° C 45% 1014.9 hPa 0 mm - 633 W/m² -
1788550599 36.67° C 45% 1014.8 hPa 0 mm - 638 W/m² -
1788550296 36.11° C 45% 1014.9 hPa 0 mm - 641 W/m² -
1788549995 36.11° C 48% 1015.2 hPa 0 mm - 703 W/m² -
1788549691 36.11° C 46% 1015.2 hPa 0 mm - 679 W/m² -
1788549387 36.11° C 47% 1015.1 hPa 0 mm - 691 W/m² -
1788549084 35.56° C 47% 1015 hPa 0 mm - 691 W/m² -
1788548779 36.11° C 47% 1015.3 hPa 0 mm - 705 W/m² -
1788548475 36.11° C 47% 1015.2 hPa 0 mm - 713 W/m² -
1788548172 35.56° C 47% 1015.3 hPa 0 mm - 714 W/m² -
1788547866 36.11° C 48% 1015.3 hPa 0 mm - 682 W/m² -
1788547565 35.56° C 48% 1015.4 hPa 0 mm - 703 W/m² -
1788547261 35.56° C 48% 1015.5 hPa 0 mm - 665 W/m² -

* Rain latest hour (hover to see other rain measurements)
** Current wind speed in m/s (hover to see current wind gust speed)